This is the latest recevied weather packets stored in our database for station/object K5DLF-13. If no packets are shown the sender has not sent any weather packets the latest 1 day(s).
| Time | Temp. | Humidity | Pressure | Rain* | Wind** | Luminosity | Snow |
|---|---|---|---|---|---|---|---|
| 1778011797 | 27.22° C | 85% | 1006.4 hPa | 0 mm | 0.89 m/s, 203° | 204 W/m² | - |
| 1778011497 | 27.22° C | 85% | 1006.4 hPa | 0 mm | 0.89 m/s, 200° | 160 W/m² | - |
| 1778011197 | 27.22° C | 85% | 1006.4 hPa | 0 mm | 0.89 m/s, 196° | 144 W/m² | - |
| 1778010897 | 27.78° C | 84% | 1006.4 hPa | 0 mm | 0.89 m/s, 199° | 109 W/m² | - |
| 1778010597 | 27.78° C | 86% | 1006.5 hPa | 0 mm | 0.89 m/s, 211° | 172 W/m² | - |
| 1778010297 | 27.22° C | 86% | 1006.5 hPa | 0 mm | 0.89 m/s, 211° | 306 W/m² | - |
| 1778010001 | 27.22° C | 85% | 1006.4 hPa | 0 mm | 0.89 m/s, 211° | 297 W/m² | - |
| 1778009697 | 27.22° C | 85% | 1006.4 hPa | 0 mm | 0.89 m/s, 212° | 127 W/m² | - |
| 1778009397 | 27.22° C | 85% | 1006.4 hPa | 0 mm | 0.89 m/s, 214° | 202 W/m² | - |
| 1778009097 | 27.22° C | 85% | 1006.4 hPa | 0 mm | 0.89 m/s, 222° | 229 W/m² | - |
| 1778008797 | 27.22° C | 86% | 1006.5 hPa | 0 mm | 0.89 m/s, 221° | 315 W/m² | - |
| 1778008497 | 27.22° C | 86% | 1006.5 hPa | 0 mm | 0.89 m/s, 190° | 258 W/m² | - |
| 1778008197 | 27.22° C | 88% | 1006.6 hPa | 0 mm | 0.89 m/s, 208° | 221 W/m² | - |
| 1778007897 | 26.67° C | 88% | 1006.6 hPa | 0 mm | 0.89 m/s, 208° | 313 W/m² | - |
| 1778007597 | 26.67° C | 88% | 1006.6 hPa | 0 mm | 0.89 m/s, 209° | 216 W/m² | - |
| 1778007297 | 26.67° C | 87% | 1006.5 hPa | 0 mm | 0.89 m/s, 202° | 195 W/m² | - |
| 1778006997 | 26.67° C | 87% | 1006.7 hPa | 0 mm | 0.89 m/s, 202° | 72 W/m² | - |
| 1778006697 | 26.67° C | 87% | 1006.8 hPa | 0 mm | 0.89 m/s, 207° | 74 W/m² | - |
| 1778006397 | 26.67° C | 87% | 1006.9 hPa | 0 mm | 0.89 m/s, 207° | 149 W/m² | - |
| 1778006097 | 26.67° C | 88% | 1007 hPa | 0 mm | 0.89 m/s, 207° | 174 W/m² | - |
| 1778005797 | 26.67° C | 88% | 1007 hPa | 0 mm | 0.89 m/s, 207° | 128 W/m² | - |
| 1778005497 | 26.67° C | 88% | 1007.2 hPa | 0 mm | 0.89 m/s, 213° | 211 W/m² | - |
| 1778005197 | 26.67° C | 87% | 1007 hPa | 0 mm | 0.89 m/s, 213° | 221 W/m² | - |
| 1778004897 | 26.67° C | 87% | 1007.1 hPa | 0 mm | 0.89 m/s, 197° | 134 W/m² | - |
| 1778004597 | 26.67° C | 87% | 1007.1 hPa | 0 mm | 0.89 m/s, 198° | 123 W/m² | - |
* Rain latest hour (hover to see other rain measurements)
** Current wind speed in m/s (hover to see current wind gust speed)